Location: Unspecified
(0.0000°N, 0.0000°E)
Time: 22:54:30
(UTC+00:00)

GONETS M 08 (M18) - Pass Details

Date: 23 May 2026
Orbit: 1470 x 1518 km, 82.5° (Epoch: 7 June)

Event Time Altitude Azimuth Distance (km) Brightness Sun altitude
Rises 18:32:10 0° 328° (NNW) 4,585 ? -8.3°
Reaches altitude 10° 18:35:52 10° 314° (NW) 3,603 ? -9.1°
Maximum altitude 18:42:04 22° 267° (W) 2,769 ? -10.6°
Drops below altitude 10° 18:48:18 10° 220° (SW) 3,602 ? -12.0°
Sets 18:52:03 0° 205° (SSW) 4,584 ? -12.9°
